Location: Laura�t
(43.9341°N, 0.2497°E)
Time: 23:57:07
(UTC+00:00)

Ariane Rocket - Pass Details

Date: 03 March 2021
Orbit: 759 x 771 km, 98.7° (Epoch: 17 April)

Event Time Altitude Azimuth Distance (km) Brightness Sun altitude
Exits shadow 18:42:05 13° 97° (E) 2,118 4.6 -10.1°
Maximum altitude 18:44:49 19° 61° (ENE) 1,771 4.4 -10.6°
Drops below altitude 10° 18:48:20 10° 17° (NNE) 2,322 5.3 -11.3°
Sets 18:51:14 0° 0° (N) 3,252 6.3 -11.8°
